Regional Weather Roundup
Issued by NWS

Home | Current Version | Previous Version | Text Only | Print | Product List | Glossary Off
Versions: 1 2 3 4 5 6 7 8 9 10 11 12 13 14 15 16 17 18 19 20 21 22 23 24 25 26 27 28 29 30 31 32 33 34 35 36 37 38 39 40 41 42 43 44 45 46 47 48 49 50

164
ASUS45 KSLC 282210
RWRUT

UTAH REGIONAL WEATHER ROUNDUP
NATIONAL WEATHER SERVICE SALT LAKE CITY UT
400 PM MDT SUN MAY 28 2017

UTZ001>011-023>025-282300-

NORTHERN UTAH

CITY           SKY/WX    TMP DP  RH WIND       PRES   REMARKS
BRIGHAM CITY   SUNNY     75  22  14 SW5       30.21S
HILL AFB       SUNNY     72  35  25 N3        30.21F
LOGAN          SUNNY     75  34  22 VRB5      30.21F
OGDEN          SUNNY     74  32  21 VRB6      30.20F
SALT LAKE CITY MOSUNNY   78  35  21 N8        30.18F
TOOELE VALLEY  SUNNY     73  37  27 N10G16    30.20F
WENDOVER       SUNNY     75  30  19 SE13      30.20F
HEBER CITY     SUNNY     75  21  13 W8        30.20F
WEST JORDAN    SUNNY     74  48  39 NW14      30.20F

$$

UTZ011>015-024>027-282300-

CENTRAL/NORTHEAST UTAH

CITY           SKY/WX    TMP DP  RH WIND       PRES   REMARKS
PROVO AIRPORT  SUNNY     75  31  19 W5        30.19F
MOAB/CANYONLAN SUNNY     80  16   9 VRB7      30.14F
DELTA          SUNNY     73  23  15 CALM      30.19F
PRICE          SUNNY     74  23  15 VRB5      30.22F
ROOSEVELT      SUNNY     73  25  16 NE3       30.24F
VERNAL         SUNNY     73  27  18 NE6       30.22F

$$

UTZ013>016-019>022-027-282300-

SOUTHERN UTAH

CITY           SKY/WX    TMP DP  RH WIND       PRES   REMARKS
BRYCE CANYON   MOSUNNY   68  19  15 E10       30.30F
CEDAR CITY     MOSUNNY   77  23  13 W7        30.18F
MILFORD        SUNNY     79  16   9 W13       30.17F
ST GEORGE      CLEAR     90  25   9 NE12G18   30.00F
HANKSVILLE     SUNNY     81  21  11 NE7       30.17F
BLANDING       PTSUNNY   76  21  12 W12       30.26F

$$

REGIONAL REPORTS     COLORADO/ARIZONA

CITY           SKY/WX    TMP DP  RH WIND       PRES   REMARKS
CRAIG, CO      SUNNY     66  28  24 NW6       30.27F
GRAND JUNCTION SUNNY     77  15   9 W8        30.16F
RIFLE, CO      SUNNY     75  13   9 NW6       30.20F
MONTROSE, CO   SUNNY     72   9   8 NW13      30.22F
CORTEZ, CO     SUNNY     76  13   9 W8        30.20F
COLORADO CITY    N/A     86  27  11 SE6       30.16F
PAGE, AZ       SUNNY     82  22  11 VRB5      30.12F
GRAND CANYON   PTSUNNY   72  21  14 NE10      30.24F
KINGMAN, AZ    SUNNY     93  25   8 NW10      30.00F
FLAGSTAFF, AZ  MOSUNNY   70  16  12 CALM      30.24F

$$

REGIONAL REPORTS    NEVADA/IDAHO/WYOMING

CITY           SKY/WX    TMP DP  RH WIND       PRES   REMARKS
LAS VEGAS, NV  MOSUNNY   94   7   4 NW8       29.96F
ELY, NY        SUNNY     73  20  13 NW8       30.24F
ELKO, NV       SUNNY     77  26  15 VRB3      30.20F
POCATELLO, ID  MOSUNNY   75  37  25 W10       30.23F
BURLEY, ID     SUNNY     76  37  24 VRB5      30.20F
FORT BRIDGER,    N/A     67  27  22 NE5       30.33F
EVANSTON, WY   SUNNY     64  30  27 MISG      30.31F
ROCK SPRINGS,  MOSUNNY   65  23  20 VRB3      30.29F
KEMMERER, WY     N/A     64  28  25 NE6       30.33F

$$




USA.gov is the U.S. government's official web portal to all federal, state and local government web resources and services.